Location: Newark
(45.5167°N, 11.1667°E)
Time: 11:22:47
(UTC+00:00)

S-56A Canister/Altair - All Passes

Search period start: 06 December 2019 00:00
Search period end: 16 December 2019 00:00
Orbit: 633 x 2499 km, 38.9° (Epoch: 06 December)

Date Brightness Start Highest point End Pass type
(mag) Time Alt. Az. Time Alt. Az. Time Alt. Az.
06 Dec - 08:05:57 10° S 08:15:14 20° SE 08:24:39 10° E daylight
06 Dec - 10:05:57 10° SW 10:19:39 45° SSE 10:32:22 10° E daylight
06 Dec - 12:10:32 10° WSW 12:25:24 64° S 12:37:23 10° E daylight
06 Dec - 14:17:08 10° W 14:31:06 60° SSW 14:41:11 10° ESE daylight
06 Dec - 16:24:38 10° W 16:35:14 33° SW 16:42:57 10° SSE visible
07 Dec - 07:34:03 10° SSE 07:42:07 17° SE 07:50:26 10° E daylight
07 Dec - 09:32:56 10° SSW 09:46:13 42° SSE 09:59:06 10° E daylight
07 Dec - 11:37:02 10° WSW 11:51:54 63° S 12:04:27 10° E daylight
07 Dec - 13:43:23 10° W 13:57:48 62° SSW 14:08:32 10° ESE daylight
07 Dec - 15:50:42 10° W 16:02:20 38° SW 16:10:46 10° SSE visible
07 Dec - 18:02:19 10° WSW 18:04:40 11° SW 18:06:50 10° SW visible
08 Dec - 07:02:35 10° SSE 07:09:03 15° SE 07:15:46 10° E daylight
08 Dec - 09:00:04 10° SSW 09:12:49 39° SE 09:25:42 10° E daylight
08 Dec - 11:03:38 10° WSW 11:18:21 62° SSE 11:31:25 10° E daylight
08 Dec - 13:09:41 10° W 13:24:25 64° S 13:35:49 10° ESE daylight
08 Dec - 15:16:49 10° W 15:29:19 42° SSW 15:38:28 10° SE daylight
08 Dec - 17:26:37 10° W 17:32:02 15° SW 17:36:40 10° SSW visible
09 Dec - 06:32:03 10° SE 06:36:03 12° SE 06:40:11 10° ESE daylight
09 Dec - 08:27:20 10° SSW 08:39:28 36° SE 08:52:11 10° E daylight
09 Dec - 10:30:19 10° WSW 10:44:48 60° SSE 10:58:18 10° E daylight
09 Dec - 12:36:02 10° W 12:50:58 66° S 13:03:00 10° ESE daylight
09 Dec - 14:42:58 10° W 14:56:13 47° SSW 15:06:05 10° SE daylight
09 Dec - 16:51:54 10° W 16:59:20 18° SW 17:05:25 10° SSW visible
10 Dec - 07:54:44 10° SSW 08:06:11 33° SE 08:18:33 10° E daylight
10 Dec - 09:57:06 10° SW 10:11:15 58° SSE 10:25:05 10° E daylight
10 Dec - 12:02:27 10° W 12:17:27 67° S 12:30:06 10° ESE daylight
10 Dec - 14:09:11 10° W 14:23:01 51° SSW 14:33:34 10° SE daylight
10 Dec - 16:17:32 10° W 16:26:33 22° SW 16:33:46 10° S visible
11 Dec - 07:22:19 10° S 07:32:57 29° SE 07:44:46 10° E daylight
11 Dec - 09:24:01 10° SW 09:37:43 55° SSE 09:51:46 10° E daylight
11 Dec - 11:28:57 10° WSW 11:43:53 67° S 11:57:06 10° ESE daylight
11 Dec - 13:35:26 10° W 13:49:44 54° SSW 14:00:57 10° SE daylight
11 Dec - 15:43:20 10° W 15:53:40 26° SW 16:01:53 10° S daylight
12 Dec - 06:50:04 10° S 06:59:48 26° SE 07:10:49 10° E daylight
12 Dec - 08:51:02 10° SW 09:04:13 52° SSE 09:18:21 10° E daylight
12 Dec - 10:55:33 10° WSW 11:10:17 67° S 11:24:00 10° E daylight
12 Dec - 13:01:45 10° W 13:16:21 57° SSW 13:28:15 10° SE daylight
12 Dec - 15:09:16 10° W 15:20:43 31° SW 15:29:48 10° SSE daylight
13 Dec - 06:18:02 10° S 06:26:44 22° SE 06:36:42 10° E daylight
13 Dec - 08:18:11 10° SW 08:30:46 49° SSE 08:44:51 10° E daylight
13 Dec - 10:22:14 10° WSW 10:36:40 67° S 10:50:49 10° E daylight
13 Dec - 12:28:09 10° W 12:42:54 60° SSW 12:55:26 10° ESE daylight
13 Dec - 14:35:19 10° W 14:47:39 35° SW 14:57:34 10° SSE daylight
14 Dec - 05:46:16 10° SSE 05:53:46 19° SE 06:02:19 10° E visible
14 Dec - 07:45:27 10° SW 07:57:23 46° SSE 08:11:15 10° E daylight
14 Dec - 09:49:02 10° WSW 10:03:04 66° S 10:17:31 10° E daylight
14 Dec - 11:54:37 10° W 12:09:23 63° SSW 12:22:31 10° ESE daylight
14 Dec - 14:01:27 10° W 14:14:30 39° SW 14:25:11 10° SSE daylight
14 Dec - 16:12:45 10° WSW 16:17:24 13° WSW 16:21:39 10° SW visible
15 Dec - 05:14:53 10° SSE 05:20:52 15° SE 05:27:35 10° E visible
15 Dec - 07:12:50 10° SSW 07:24:05 42° SE 07:37:34 10° E daylight
15 Dec - 09:15:55 10° WSW 09:29:28 64° SSE 09:44:10 10° E daylight
15 Dec - 11:21:10 10° W 11:35:49 64° S 11:49:29 10° ESE daylight
15 Dec - 13:27:41 10° W 13:41:16 42° SSW 13:52:40 10° SSE daylight
15 Dec - 15:37:27 10° W 15:44:34 16° SW 15:50:52 10° SSW daylight
